When you browse on this site, cookies collect data to enhance your experience and personalize the content and advertising you see.
Visit our Privacy Policy to learn more. By continuing to use the site, you agree to this use of cookies and data.
  • In Hungary
  • List of Countries
  • For 7 days
  • Water Temperature
  • Satellite Maps
  • Weather Map
  • News
  • Weather Widgets
  • user-avatar
    Login

    Hourly Weather Dawidy

    Today, 21 May, Tuesday

    Time Temperature Precipitation Wind Pressure Humidity
    00:00 +17°C° 0.5 mm 2 mps 741 mmHg 95%
    01:00 +17°C° 0.5 mm 2 mps 741 mmHg 95%
    02:00 +16°C° 0.5 mm 2 mps 741 mmHg 95%
    03:00 +16°C° 0 mm 2 mps 741 mmHg 95%
    04:00 +16°C° 0 mm 3 mps 741 mmHg 96%
    05:00 +16°C° 0 mm 3 mps 741 mmHg 96%
    06:00 +15°C° 0 mm 4 mps 741 mmHg 94%
    07:00 +17°C° 0 mm 4 mps 740 mmHg 93%
    08:00 +17°C° 0 mm 5 mps 740 mmHg 91%
    09:00 +17°C° 0.1 mm 5 mps 740 mmHg 89%
    10:00 +17°C° 0.1 mm 5 mps 740 mmHg 86%
    11:00 +19°C° 0.1 mm 5 mps 740 mmHg 84%
    12:00 +19°C° 0.5 mm 6 mps 740 mmHg 83%
    13:00 +18°C° 0.5 mm 7 mps 739 mmHg 82%
    14:00 +20°C° 0.5 mm 8 mps 739 mmHg 80%
    15:00 +18°C° 0.1 mm 8 mps 739 mmHg 79%
    16:00 +18°C° 0.1 mm 7 mps 739 mmHg 78%
    17:00 +17°C° 0.1 mm 7 mps 739 mmHg 76%
    18:00 +16°C° 0 mm 7 mps 739 mmHg 78%
    19:00 +15°C° 0 mm 6 mps 739 mmHg 79%
    20:00 +14°C° 0 mm 6 mps 739 mmHg 80%
    21:00 +14°C° 0 mm 6 mps 739 mmHg 82%
    22:00 +13°C° 0 mm 6 mps 739 mmHg 83%
    23:00 +13°C° 0 mm 6 mps 739 mmHg 84%

    Tomorrow, 22 May, Wednesday

    Time Temperature Precipitation Wind Pressure Humidity
    00:00 +13°C° 0 mm 6 mps 739 mmHg 84%
    01:00 +11°C° 0 mm 6 mps 739 mmHg 85%
    02:00 +11°C° 0 mm 6 mps 739 mmHg 85%
    03:00 +11°C° 0 mm 6 mps 739 mmHg 86%
    04:00 +11°C° 0 mm 6 mps 739 mmHg 87%
    05:00 +13°C° 0 mm 5 mps 739 mmHg 88%
    06:00 +13°C° 0.1 mm 5 mps 739 mmHg 89%
    07:00 +13°C° 0.1 mm 5 mps 739 mmHg 91%
    08:00 +14°C° 0.1 mm 4 mps 739 mmHg 92%
    09:00 +14°C° 0 mm 5 mps 740 mmHg 89%
    10:00 +15°C° 0 mm 5 mps 740 mmHg 87%
    11:00 +16°C° 0 mm 5 mps 740 mmHg 84%
    12:00 +16°C° 0.1 mm 5 mps 740 mmHg 82%
    13:00 +17°C° 0.1 mm 5 mps 740 mmHg 79%
    14:00 +18°C° 0.1 mm 4 mps 740 mmHg 77%
    15:00 +18°C° 0 mm 4 mps 740 mmHg 76%
    16:00 +18°C° 0 mm 3 mps 740 mmHg 75%
    17:00 +19°C° 0 mm 3 mps 740 mmHg 75%
    18:00 +18°C° 0 mm 2 mps 740 mmHg 79%
    19:00 +17°C° 0 mm 2 mps 740 mmHg 83%
    20:00 +16°C° 0 mm 2 mps 740 mmHg 86%
    21:00 +15°C° 0 mm 2 mps 740 mmHg 89%
    22:00 +14°C° 0 mm 2 mps 741 mmHg 91%
    23:00 +14°C° 0 mm 1 mps 741 mmHg 93%

    Day after tomorrow, 23 May, Thursday

    Time Temperature Precipitation Wind Pressure Humidity
    00:00 +13°C° 0 mm 1 mps 741 mmHg 94%
    01:00 +13°C° 0 mm 1 mps 741 mmHg 94%
    02:00 +13°C° 0 mm 1 mps 741 mmHg 95%
    03:00 +12°C° 0 mm 1 mps 742 mmHg 95%
    04:00 +12°C° 0 mm 1 mps 742 mmHg 95%
    05:00 +12°C° 0 mm 1 mps 742 mmHg 95%
    06:00 +14°C° 0 mm 1 mps 742 mmHg 91%
    07:00 +15°C° 0 mm 1 mps 742 mmHg 87%
    08:00 +17°C° 0 mm 2 mps 743 mmHg 83%
    09:00 +18°C° 0.6 mm 2 mps 743 mmHg 81%
    10:00 +18°C° 0.6 mm 2 mps 743 mmHg 79%
    11:00 +19°C° 0.6 mm 2 mps 743 mmHg 77%
    12:00 +20°C° 1.5 mm 3 mps 743 mmHg 77%
    13:00 +20°C° 1.5 mm 4 mps 743 mmHg 77%
    14:00 +21°C° 1.5 mm 4 mps 743 mmHg 76%
    15:00 +20°C° 1.8 mm 5 mps 743 mmHg 80%
    16:00 +19°C° 1.8 mm 6 mps 743 mmHg 84%
    17:00 +17°C° 1.8 mm 7 mps 744 mmHg 87%
    18:00 +16°C° 1.2 mm 7 mps 744 mmHg 89%
    19:00 +15°C° 1.2 mm 7 mps 744 mmHg 91%
    20:00 +14°C° 1.2 mm 7 mps 744 mmHg 93%
    21:00 +13°C° 0.3 mm 6 mps 744 mmHg 93%
    22:00 +11°C° 0.3 mm 6 mps 745 mmHg 93%
    23:00 +10°C° 0.3 mm 6 mps 745 mmHg 93%

    24 May, Friday

    Time Temperature Precipitation Wind Pressure Humidity
    00:00 +9°C° 0.2 mm 6 mps 745 mmHg 92%
    01:00 +9°C° 0.2 mm 5 mps 745 mmHg 90%
    02:00 +8°C° 0.2 mm 5 mps 745 mmHg 89%
    03:00 +8°C° 0.1 mm 5 mps 745 mmHg 87%
    04:00 +8°C° 0.1 mm 4 mps 745 mmHg 86%
    05:00 +8°C° 0.1 mm 4 mps 745 mmHg 84%
    06:00 +8°C° 0.1 mm 4 mps 745 mmHg 84%
    07:00 +10°C° 0.1 mm 4 mps 745 mmHg 83%
    08:00 +10°C° 0.1 mm 4 mps 745 mmHg 82%
    09:00 +11°C° 0 mm 4 mps 745 mmHg 80%
    10:00 +12°C° 0 mm 4 mps 745 mmHg 78%
    11:00 +13°C° 0 mm 4 mps 745 mmHg 75%
    12:00 +14°C° 0 mm 4 mps 745 mmHg 72%
    13:00 +17°C° 0 mm 4 mps 745 mmHg 68%
    14:00 +18°C° 0 mm 4 mps 744 mmHg 64%
    15:00 +18°C° 0 mm 4 mps 744 mmHg 65%
    16:00 +18°C° 0 mm 4 mps 744 mmHg 66%
    17:00 +19°C° 0 mm 3 mps 744 mmHg 67%
    18:00 +18°C° 0 mm 3 mps 743 mmHg 71%
    19:00 +17°C° 0 mm 2 mps 743 mmHg 75%
    20:00 +16°C° 0 mm 2 mps 743 mmHg 79%
    21:00 +15°C° 0 mm 2 mps 743 mmHg 81%
    22:00 +14°C° 0 mm 2 mps 743 mmHg 82%
    23:00 +13°C° 0 mm 2 mps 743 mmHg 84%

    25 May, Saturday

    Time Temperature Precipitation Wind Pressure Humidity
    00:00 +13°C° 0 mm 2 mps 743 mmHg 86%
    01:00 +12°C° 0 mm 2 mps 743 mmHg 89%
    02:00 +10°C° 0 mm 2 mps 743 mmHg 91%
    03:00 +10°C° 0 mm 2 mps 743 mmHg 92%
    04:00 +11°C° 0 mm 1 mps 743 mmHg 92%
    05:00 +10°C° 0 mm 1 mps 743 mmHg 92%
    06:00 +12°C° 0 mm 1 mps 743 mmHg 86%
    07:00 +14°C° 0 mm 1 mps 744 mmHg 80%
    08:00 +15°C° 0 mm 0 mps 744 mmHg 74%
    09:00 +18°C° 0 mm 1 mps 744 mmHg 69%
    10:00 +19°C° 0 mm 1 mps 743 mmHg 64%
    11:00 +19°C° 0 mm 2 mps 743 mmHg 59%
    12:00 +20°C° 0 mm 2 mps 743 mmHg 58%
    13:00 +21°C° 0 mm 2 mps 743 mmHg 56%
    14:00 +21°C° 0 mm 3 mps 743 mmHg 55%
    15:00 +21°C° 0 mm 3 mps 743 mmHg 56%
    16:00 +21°C° 0 mm 3 mps 742 mmHg 58%
    17:00 +21°C° 0 mm 3 mps 742 mmHg 59%
    18:00 +20°C° 0.1 mm 3 mps 742 mmHg 65%
    19:00 +18°C° 0.1 mm 3 mps 742 mmHg 72%
    20:00 +17°C° 0.1 mm 2 mps 742 mmHg 79%
    21:00 +16°C° 0 mm 2 mps 742 mmHg 83%
    22:00 +15°C° 0 mm 2 mps 742 mmHg 87%
    23:00 +14°C° 0 mm 2 mps 743 mmHg 91%

    26 May, Sunday

    Time Temperature Precipitation Wind Pressure Humidity
    00:00 +13°C° 0 mm 2 mps 743 mmHg 92%
    01:00 +13°C° 0 mm 2 mps 743 mmHg 94%
    02:00 +12°C° 0 mm 2 mps 743 mmHg 95%
    03:00 +12°C° 0 mm 2 mps 743 mmHg 96%
    04:00 +12°C° 0 mm 2 mps 743 mmHg 97%
    05:00 +12°C° 0 mm 2 mps 744 mmHg 98%
    06:00 +11°C° 0 mm 3 mps 744 mmHg 95%
    07:00 +12°C° 0 mm 3 mps 744 mmHg 92%
    08:00 +13°C° 0 mm 3 mps 744 mmHg 89%
    09:00 +14°C° 0 mm 4 mps 745 mmHg 81%
    10:00 +15°C° 0 mm 4 mps 745 mmHg 73%
    11:00 +16°C° 0 mm 5 mps 745 mmHg 65%
    12:00 +17°C° 0 mm 4 mps 745 mmHg 66%
    13:00 +15°C° 0 mm 4 mps 745 mmHg 67%
    14:00 +15°C° 0 mm 4 mps 745 mmHg 68%
    15:00 +15°C° 0 mm 4 mps 745 mmHg 68%
    16:00 +15°C° 0 mm 4 mps 745 mmHg 69%
    17:00 +15°C° 0 mm 4 mps 745 mmHg 70%
    18:00 +14°C° 0 mm 3 mps 745 mmHg 74%
    19:00 +14°C° 0 mm 2 mps 745 mmHg 77%
    20:00 +14°C° 0 mm 2 mps 745 mmHg 81%
    21:00 +13°C° 0 mm 2 mps 745 mmHg 83%
    22:00 +12°C° 0 mm 1 mps 745 mmHg 86%
    23:00 +11°C° 0 mm 1 mps 746 mmHg 88%
    Show more